Radiation Dose at Monitoring Post of Fukushima Daini Nuclear Power Station
Date,Time,MP-1(microSv/h),MP-2(microSv/h),MP-3(microSv/h),MP-4(microSv/h),MP-5(microSv/h),MP-6(microSv/h),MP-7(microSv/h),Wind Direction,Wind Velocity(m/s),Rain
2017/06/05,00:00,0.375,0.226,0.386,0.357,0.323,0.188,0.121,west-northwest,7.9,No
2017/06/05,00:10,0.374,0.225,0.386,0.356,0.326,0.187,0.121,west-northwest,6.2,No
2017/06/05,00:20,0.374,0.225,0.388,0.357,0.325,0.188,0.121,west,2.9,No
2017/06/05,00:30,0.376,0.226,0.385,0.356,0.326,0.187,0.121,west-southwest,1.3,No
2017/06/05,00:40,0.375,0.226,0.388,0.358,0.326,0.187,0.122,-,CALM,No
2017/06/05,00:50,0.375,0.227,0.385,0.356,0.324,0.187,0.121,south-southwest,0.7,No
2017/06/05,01:00,0.374,0.227,0.387,0.358,0.327,0.187,0.121,west,2.7,No
2017/06/05,01:10,0.376,0.226,0.387,0.358,0.324,0.186,0.121,west,2.0,No
2017/06/05,01:20,0.376,0.227,0.385,0.357,0.326,0.188,0.122,west-northwest,2.5,No
2017/06/05,01:30,0.373,0.227,0.387,0.358,0.326,0.187,0.121,northwest,1.2,No
2017/06/05,01:40,0.375,0.225,0.386,0.356,0.324,0.186,0.121,north-northeast,2.2,No
2017/06/05,01:50,0.373,0.227,0.388,0.357,0.327,0.187,0.122,northeast,1.6,No
2017/06/05,02:00,0.377,0.226,0.389,0.356,0.325,0.187,0.121,north-northeast,1.8,No
2017/06/05,02:10,0.374,0.225,0.386,0.357,0.326,0.187,0.121,north-northeast,1.4,No
2017/06/05,02:20,0.373,0.226,0.387,0.358,0.326,0.188,0.121,northeast,1.8,No
2017/06/05,02:30,0.376,0.226,0.387,0.356,0.325,0.187,0.122,northeast,0.8,No
2017/06/05,02:40,0.374,0.226,0.386,0.358,0.326,0.187,0.122,-,CALM,No
2017/06/05,02:50,0.375,0.226,0.388,0.355,0.326,0.187,0.122,north,0.8,No
2017/06/05,03:00,0.375,0.227,0.387,0.357,0.325,0.187,0.122,north-northeast,1.8,No
2017/06/05,03:10,0.374,0.226,0.385,0.358,0.326,0.187,0.120,northeast,0.9,No
2017/06/05,03:20,0.375,0.227,0.387,0.355,0.325,0.187,0.121,north-northeast,1.7,No
2017/06/05,03:30,0.375,0.225,0.386,0.358,0.326,0.187,0.122,north,2.7,No
2017/06/05,03:40,0.374,0.225,0.387,0.355,0.326,0.187,0.122,northwest,1.5,No
2017/06/05,03:50,0.376,0.226,0.386,0.356,0.324,0.187,0.122,west-northwest,2.3,No
2017/06/05,04:00,0.373,0.225,0.386,0.356,0.325,0.187,0.122,west,3.4,No
2017/06/05,04:10,0.376,0.225,0.387,0.356,0.327,0.187,0.121,north-northwest,3.3,No
2017/06/05,04:20,0.375,0.226,0.386,0.357,0.325,0.187,0.122,north-northwest,3.1,No
2017/06/05,04:30,0.376,0.226,0.386,0.357,0.325,0.187,0.121,north-northwest,5.0,No
2017/06/05,04:40,0.373,0.227,0.388,0.356,0.327,0.187,0.122,northwest,4.7,No
2017/06/05,04:50,0.373,0.224,0.386,0.358,0.324,0.187,0.122,northwest,3.9,No
2017/06/05,05:00,0.376,0.227,0.386,0.356,0.327,0.186,0.122,west-northwest,4.3,No
2017/06/05,05:10,0.373,0.225,0.388,0.356,0.326,0.188,0.122,northwest,3.9,No
2017/06/05,05:20,0.375,0.225,0.385,0.357,0.326,0.187,0.122,northwest,4.7,No
2017/06/05,05:30,0.376,0.225,0.387,0.355,0.326,0.186,0.122,west-northwest,4.4,No
2017/06/05,05:40,0.373,0.225,0.386,0.357,0.325,0.187,0.122,northwest,4.8,No
2017/06/05,05:50,0.375,0.225,0.385,0.356,0.326,0.187,0.121,northwest,5.1,No
2017/06/05,06:00,0.373,0.225,0.387,0.356,0.325,0.186,0.121,west,2.7,No
2017/06/05,06:10,0.374,0.226,0.386,0.357,0.323,0.187,0.121,north-northwest,2.5,No
2017/06/05,06:20,0.374,0.224,0.386,0.354,0.325,0.187,0.120,east-northeast,0.8,No
2017/06/05,06:30,0.375,0.225,0.387,0.357,0.324,0.186,0.121,north,1.4,No
2017/06/05,06:40,0.374,0.225,0.385,0.355,0.326,0.187,0.122,south-southwest,1.4,No
2017/06/05,06:50,0.374,0.225,0.388,0.358,0.324,0.186,0.120,south,0.7,No
2017/06/05,07:00,0.373,0.226,0.383,0.354,0.327,0.187,0.121,southeast,1.2,No
2017/06/05,07:10,0.375,0.224,0.385,0.356,0.323,0.187,0.121,north-northeast,0.5,No
2017/06/05,07:20,0.372,0.223,0.384,0.355,0.327,0.185,0.120,east-northeast,0.6,No
2017/06/05,07:30,0.375,0.225,0.381,0.353,0.324,0.188,0.120,east-southeast,1.9,No
2017/06/05,07:40,0.370,0.225,0.383,0.358,0.327,0.186,0.121,east-northeast,2.5,No
2017/06/05,07:50,0.376,0.223,0.386,0.354,0.323,0.188,0.120,east,2.7,No
2017/06/05,08:00,0.374,0.225,0.384,0.353,0.325,0.186,0.120,east,2.6,No
2017/06/05,08:10,0.373,0.226,0.381,0.357,0.325,0.187,0.121,east-northeast,1.9,No
2017/06/05,08:20,0.375,0.225,0.383,0.354,0.321,0.187,0.120,north-northeast,1.4,No
2017/06/05,08:30,0.372,0.228,0.387,0.351,0.326,0.186,0.120,northeast,1.6,No
2017/06/05,08:40,0.375,0.226,0.382,0.351,0.324,0.187,0.121,east-northeast,3.1,No
2017/06/05,08:50,0.373,0.225,0.386,0.355,0.324,0.186,0.119,east-northeast,3.3,No
2017/06/05,09:00,0.373,0.227,0.386,0.357,0.326,0.186,0.117,east-northeast,3.3,No
2017/06/05,09:10,0.376,0.225,0.384,0.354,0.324,0.186,0.118,east,3.1,No
2017/06/05,09:20,0.372,0.224,0.387,0.352,0.322,0.186,0.118,east-northeast,2.8,No
2017/06/05,09:30,0.371,0.225,0.386,0.357,0.328,0.187,0.118,east-northeast,3.0,No
2017/06/05,09:40,0.375,0.224,0.387,0.359,0.325,0.187,0.119,east,1.9,No
2017/06/05,09:50,0.374,0.226,0.388,0.355,0.325,0.186,0.118,northeast,2.9,No
2017/06/05,10:00,0.374,0.226,0.384,0.359,0.327,0.186,0.117,east-northeast,2.8,No
2017/06/05,10:10,0.375,0.227,0.389,0.356,0.324,0.186,0.120,east-northeast,3.3,No
2017/06/05,10:20,0.372,0.226,0.385,0.354,0.323,0.186,0.118,east-northeast,3.1,No
2017/06/05,10:30,0.375,0.224,0.382,0.355,0.325,0.187,0.116,east-northeast,2.7,No
2017/06/05,10:40,0.375,0.226,0.385,0.357,0.325,0.186,0.118,northeast,3.5,No
2017/06/05,10:50,0.370,0.226,0.388,0.354,0.323,0.186,0.117,northeast,3.5,No
2017/06/05,11:00,0.373,0.224,0.385,0.353,0.325,0.187,0.117,east-northeast,2.6,No
2017/06/05,11:10,0.376,0.226,0.382,0.352,0.326,0.187,0.120,east-northeast,2.8,No
2017/06/05,11:20,0.372,0.226,0.382,0.356,0.323,0.185,0.117,northeast,3.0,No
2017/06/05,11:30,0.375,0.225,0.386,0.356,0.322,0.187,0.117,east-northeast,2.2,No
2017/06/05,11:40,0.375,0.227,0.385,0.353,0.327,0.186,0.118,northeast,1.8,No
2017/06/05,11:50,0.372,0.226,0.384,0.359,0.324,0.186,0.119,east-northeast,2.3,No
2017/06/05,12:00,0.376,0.226,0.389,0.358,0.326,0.186,0.118,northeast,3.0,No
2017/06/05,12:10,0.373,0.224,0.385,0.353,0.328,0.186,0.118,east-northeast,3.0,No
2017/06/05,12:20,0.374,0.226,0.385,0.357,0.323,0.187,0.116,east-northeast,2.4,No
2017/06/05,12:30,0.377,0.225,0.388,0.356,0.326,0.187,0.118,east,2.2,No
2017/06/05,12:40,0.373,0.225,0.385,0.355,0.326,0.186,0.118,east,2.3,No
2017/06/05,12:50,0.375,0.226,0.384,0.356,0.323,0.187,0.117,east-northeast,2.1,No
2017/06/05,13:00,0.372,0.225,0.389,0.356,0.327,0.186,0.118,east,1.5,Yes
2017/06/05,13:10,0.374,0.226,0.385,0.358,0.326,0.186,0.118,east-southeast,1.1,Yes
2017/06/05,13:20,0.375,0.226,0.389,0.358,0.326,0.185,0.118,east-northeast,2.0,No
2017/06/05,13:30,0.374,0.226,0.386,0.356,0.325,0.186,0.118,east-northeast,2.2,No
2017/06/05,13:40,0.376,0.225,0.387,0.360,0.325,0.185,0.118,east-northeast,2.6,Yes
2017/06/05,13:50,0.376,0.226,0.388,0.357,0.326,0.186,0.117,east-northeast,1.9,No
2017/06/05,14:00,0.376,0.224,0.387,0.360,0.325,0.186,0.117,northeast,1.9,No
2017/06/05,14:10,0.373,0.226,0.387,0.357,0.328,0.186,0.118,east-northeast,2.0,No
2017/06/05,14:20,0.378,0.226,0.388,0.359,0.324,0.187,0.116,east-northeast,2.3,No
2017/06/05,14:30,0.373,0.228,0.388,0.359,0.327,0.186,0.119,east-northeast,1.8,No
2017/06/05,14:40,0.376,0.224,0.385,0.356,0.326,0.187,0.118,north-northwest,1.9,No
2017/06/05,14:50,0.373,0.226,0.389,0.358,0.324,0.185,0.119,northwest,0.8,No
2017/06/05,15:00,0.376,0.225,0.386,0.356,0.326,0.186,0.117,north,0.6,No
2017/06/05,15:10,0.375,0.227,0.389,0.359,0.323,0.186,0.119,-,CALM,No
2017/06/05,15:20,0.374,0.225,0.385,0.354,0.327,0.188,0.119,north-northeast,1.1,No
2017/06/05,15:30,0.377,0.227,0.389,0.359,0.325,0.188,0.118,north-northwest,1.8,No
2017/06/05,15:40,0.373,0.225,0.387,0.356,0.326,0.187,0.119,-,CALM,No
2017/06/05,15:50,0.376,0.227,0.387,0.356,0.328,0.186,0.118,-,CALM,No
2017/06/05,16:00,0.374,0.226,0.388,0.357,0.326,0.186,0.119,west-southwest,0.8,No
2017/06/05,16:10,0.377,0.228,0.391,0.358,0.326,0.186,0.118,west-southwest,1.2,No
2017/06/05,16:20,0.373,0.226,0.387,0.358,0.324,0.187,0.120,west-southwest,0.8,No
2017/06/05,16:30,0.376,0.227,0.388,0.358,0.327,0.187,0.119,west,0.7,No
2017/06/05,16:40,0.373,0.227,0.386,0.358,0.323,0.187,0.119,-,CALM,No
2017/06/05,16:50,0.375,0.226,0.386,0.357,0.328,0.188,0.119,-,CALM,No
2017/06/05,17:00,0.376,0.225,0.388,0.359,0.326,0.187,0.120,south-southwest,1.1,No
2017/06/05,17:10,0.374,0.228,0.388,0.354,0.325,0.186,0.118,west-southwest,0.7,No
2017/06/05,17:20,0.377,0.225,0.387,0.359,0.325,0.187,0.119,west-southwest,1.0,No
2017/06/05,17:30,0.375,0.228,0.388,0.356,0.325,0.187,0.120,southwest,1.0,No
2017/06/05,17:40,0.377,0.225,0.390,0.359,0.325,0.186,0.120,west-southwest,0.6,No
2017/06/05,17:50,0.374,0.227,0.387,0.357,0.325,0.186,0.119,-,CALM,No
2017/06/05,18:00,0.375,0.227,0.389,0.359,0.326,0.186,0.120,-,CALM,No
2017/06/05,18:10,0.374,0.226,0.388,0.356,0.323,0.187,0.119,-,CALM,No
2017/06/05,18:20,0.376,0.227,0.388,0.359,0.327,0.187,0.119,-,CALM,No
2017/06/05,18:30,0.374,0.225,0.387,0.358,0.326,0.186,0.119,-,CALM,No
2017/06/05,18:40,0.375,0.227,0.387,0.359,0.327,0.187,0.119,-,CALM,No
2017/06/05,18:50,0.374,0.227,0.389,0.357,0.324,0.187,0.119,southeast,0.8,No
2017/06/05,19:00,0.376,0.226,0.386,0.358,0.328,0.188,0.120,-,CALM,No
2017/06/05,19:10,0.376,0.227,0.390,0.357,0.326,0.187,0.119,east-northeast,1.1,No
2017/06/05,19:20,0.375,0.227,0.387,0.358,0.327,0.186,0.119,northeast,1.6,No
2017/06/05,19:30,0.376,0.226,0.387,0.358,0.326,0.187,0.119,northeast,1.8,No
2017/06/05,19:40,0.375,0.228,0.388,0.358,0.326,0.187,0.120,northeast,2.6,No
2017/06/05,19:50,0.376,0.226,0.387,0.359,0.327,0.187,0.120,east-northeast,1.5,No
2017/06/05,20:00,0.375,0.226,0.390,0.357,0.327,0.187,0.120,southeast,0.8,No
2017/06/05,20:10,0.377,0.228,0.389,0.359,0.328,0.187,0.120,-,CALM,No
2017/06/05,20:20,0.374,0.227,0.390,0.359,0.325,0.188,0.120,north,0.8,No
2017/06/05,20:30,0.376,0.227,0.388,0.358,0.326,0.188,0.120,north-northwest,1.2,No
2017/06/05,20:40,0.374,0.228,0.388,0.359,0.328,0.187,0.120,north,1.4,No
2017/06/05,20:50,0.375,0.227,0.390,0.358,0.325,0.187,0.119,north,1.9,No
2017/06/05,21:00,0.376,0.227,0.388,0.359,0.328,0.187,0.120,north,2.2,No
2017/06/05,21:10,0.375,0.228,0.387,0.358,0.325,0.187,0.119,north-northeast,1.9,No
2017/06/05,21:20,0.376,0.227,0.389,0.357,0.326,0.187,0.119,north-northeast,2.6,No
2017/06/05,21:30,0.375,0.227,0.388,0.360,0.327,0.187,0.119,northeast,3.4,No
2017/06/05,21:40,0.375,0.227,0.389,0.358,0.326,0.189,0.119,north-northeast,2.3,No
2017/06/05,21:50,0.377,0.227,0.388,0.359,0.329,0.188,0.120,north,1.9,No
2017/06/05,22:00,0.374,0.228,0.388,0.358,0.326,0.187,0.120,north,3.2,No
2017/06/05,22:10,0.378,0.227,0.388,0.358,0.327,0.188,0.121,north,4.0,No
2017/06/05,22:20,0.376,0.226,0.389,0.358,0.328,0.186,0.119,north,3.8,No
2017/06/05,22:30,0.375,0.227,0.388,0.358,0.326,0.186,0.120,north,3.6,No
2017/06/05,22:40,0.377,0.228,0.388,0.358,0.327,0.187,0.120,north,4.2,No
2017/06/05,22:50,0.375,0.226,0.388,0.361,0.329,0.187,0.119,north,2.4,No
2017/06/05,23:00,0.376,0.227,0.388,0.357,0.327,0.187,0.120,north,2.5,No
2017/06/05,23:10,0.377,0.228,0.390,0.358,0.326,0.186,0.121,north,2.2,No
2017/06/05,23:20,0.375,0.227,0.387,0.359,0.326,0.187,0.121,north,2.8,No
2017/06/05,23:30,0.377,0.226,0.391,0.358,0.327,0.187,0.120,north,4.0,No
2017/06/05,23:40,0.374,0.226,0.389,0.358,0.326,0.186,0.119,north,3.7,No
2017/06/05,23:50,0.376,0.227,0.388,0.359,0.326,0.187,0.120,north,3.3,No
